Year,Month,Day,Hour,Minute,Value (Times are PST for temperature in C)
2018,07,07,00,00,18.10
2018,07,07,00,01,18.10
2018,07,07,00,02,18.00
2018,07,07,00,03,18.00
2018,07,07,00,04,18.00
2018,07,07,00,05,18.00
2018,07,07,00,06,18.00
2018,07,07,00,07,18.00
2018,07,07,00,08,18.00
2018,07,07,00,09,18.00
2018,07,07,00,10,18.00
2018,07,07,00,11,18.00
2018,07,07,00,12,18.00
2018,07,07,00,13,18.00
2018,07,07,00,14,18.00
2018,07,07,00,15,18.00
2018,07,07,00,16,18.00
2018,07,07,00,17,18.00
2018,07,07,00,18,17.90
2018,07,07,00,19,17.90
2018,07,07,00,20,17.90
2018,07,07,00,21,17.90
2018,07,07,00,22,18.00
2018,07,07,00,23,17.90
2018,07,07,00,24,17.90
2018,07,07,00,25,17.90
2018,07,07,00,26,17.90
2018,07,07,00,27,17.90
2018,07,07,00,28,17.90
2018,07,07,00,29,17.90
2018,07,07,00,30,17.90
2018,07,07,00,31,17.90
2018,07,07,00,32,17.90
2018,07,07,00,33,17.90
2018,07,07,00,34,17.90
2018,07,07,00,35,17.90
2018,07,07,00,36,17.90
2018,07,07,00,37,17.90
2018,07,07,00,38,17.90
2018,07,07,00,39,17.90
2018,07,07,00,40,17.90
2018,07,07,00,41,17.90
2018,07,07,00,42,17.90
2018,07,07,00,43,17.80
2018,07,07,00,44,17.80
2018,07,07,00,45,17.80
2018,07,07,00,46,17.80
2018,07,07,00,47,17.80
2018,07,07,00,48,17.80
2018,07,07,00,49,17.80
2018,07,07,00,50,17.80
2018,07,07,00,51,17.80
2018,07,07,00,52,17.80
2018,07,07,00,53,17.80
2018,07,07,00,54,17.80
2018,07,07,00,55,17.80
2018,07,07,00,56,17.80
2018,07,07,00,57,17.80
2018,07,07,00,58,17.80
2018,07,07,00,59,17.80
2018,07,07,01,00,17.80
2018,07,07,01,01,17.80
2018,07,07,01,02,17.80
2018,07,07,01,03,17.80
2018,07,07,01,04,17.80
2018,07,07,01,05,17.80
2018,07,07,01,06,17.80
2018,07,07,01,07,17.80
2018,07,07,01,08,17.80
2018,07,07,01,09,17.80
2018,07,07,01,10,17.80
2018,07,07,01,11,17.80
2018,07,07,01,12,17.80
2018,07,07,01,13,17.80
2018,07,07,01,14,17.80
2018,07,07,01,15,17.80
2018,07,07,01,16,17.80
2018,07,07,01,17,17.80
2018,07,07,01,18,17.80
2018,07,07,01,19,17.80
2018,07,07,01,20,17.80
2018,07,07,01,21,17.80
2018,07,07,01,22,17.80
2018,07,07,01,23,17.80
2018,07,07,01,24,17.80
2018,07,07,01,25,17.80
2018,07,07,01,26,17.80
2018,07,07,01,27,17.80
2018,07,07,01,28,17.80
2018,07,07,01,29,17.80
2018,07,07,01,30,17.80
2018,07,07,01,31,17.80
2018,07,07,01,32,17.80
2018,07,07,01,33,17.80
2018,07,07,01,34,17.80
2018,07,07,01,35,17.80
2018,07,07,01,36,17.80
2018,07,07,01,37,17.80
2018,07,07,01,38,17.80
2018,07,07,01,39,17.80
2018,07,07,01,40,17.70
2018,07,07,01,41,17.70
2018,07,07,01,42,17.70
2018,07,07,01,43,17.70
2018,07,07,01,44,17.70
2018,07,07,01,45,17.70
2018,07,07,01,46,17.70
2018,07,07,01,47,17.70
2018,07,07,01,48,17.70
2018,07,07,01,49,17.70
2018,07,07,01,50,17.70
2018,07,07,01,51,17.70
2018,07,07,01,52,17.70
2018,07,07,01,53,17.70
2018,07,07,01,54,17.60
2018,07,07,01,55,17.70
2018,07,07,01,56,17.60
2018,07,07,01,57,17.60
2018,07,07,01,58,17.60
2018,07,07,01,59,17.60
2018,07,07,02,00,17.60
2018,07,07,02,01,17.60
2018,07,07,02,02,17.60
2018,07,07,02,03,17.60
2018,07,07,02,04,17.60
2018,07,07,02,05,17.60
2018,07,07,02,06,17.60
2018,07,07,02,07,17.60
2018,07,07,02,08,17.60
2018,07,07,02,09,17.60
2018,07,07,02,10,17.60
2018,07,07,02,11,17.60
2018,07,07,02,12,17.60
2018,07,07,02,13,17.60
2018,07,07,02,14,17.60
2018,07,07,02,15,17.60
2018,07,07,02,16,17.60
2018,07,07,02,17,17.60
2018,07,07,02,18,17.60
2018,07,07,02,19,17.60
2018,07,07,02,20,17.60
2018,07,07,02,21,17.60
2018,07,07,02,22,17.60
2018,07,07,02,23,17.60
2018,07,07,02,24,17.60
2018,07,07,02,25,17.50
2018,07,07,02,26,17.50
2018,07,07,02,27,17.50
2018,07,07,02,28,17.50
2018,07,07,02,29,17.50
2018,07,07,02,30,17.50
2018,07,07,02,31,17.50
2018,07,07,02,32,17.50
2018,07,07,02,33,17.50
2018,07,07,02,34,17.50
2018,07,07,02,35,17.50
2018,07,07,02,36,17.50
2018,07,07,02,37,17.40
2018,07,07,02,38,17.50
2018,07,07,02,39,17.40
2018,07,07,02,40,17.40
2018,07,07,02,41,17.40
2018,07,07,02,42,17.40
2018,07,07,02,43,17.40
2018,07,07,02,44,17.40
2018,07,07,02,45,17.40
2018,07,07,02,46,17.40
2018,07,07,02,47,17.40
2018,07,07,02,48,17.40
2018,07,07,02,49,17.40
2018,07,07,02,50,17.40
2018,07,07,02,51,17.40
2018,07,07,02,52,17.40
2018,07,07,02,53,17.40
2018,07,07,02,54,17.40
2018,07,07,02,55,17.40
2018,07,07,02,56,17.40
2018,07,07,02,57,17.40
2018,07,07,02,58,17.40
2018,07,07,02,59,17.40
2018,07,07,03,00,17.40
2018,07,07,03,01,17.40
2018,07,07,03,02,17.40
2018,07,07,03,03,17.40
2018,07,07,03,04,17.40
2018,07,07,03,05,17.40
2018,07,07,03,06,17.40
2018,07,07,03,07,17.40
2018,07,07,03,08,17.40
2018,07,07,03,09,17.40
2018,07,07,03,10,17.40
2018,07,07,03,11,17.30
2018,07,07,03,12,17.30
2018,07,07,03,13,17.30
2018,07,07,03,14,17.30
2018,07,07,03,15,17.20
2018,07,07,03,16,17.20
2018,07,07,03,17,17.20
2018,07,07,03,18,17.20
2018,07,07,03,19,17.10
2018,07,07,03,20,17.10
2018,07,07,03,21,17.10
2018,07,07,03,22,17.10
2018,07,07,03,23,17.10
2018,07,07,03,24,17.00
2018,07,07,03,25,17.00
2018,07,07,03,26,16.90
2018,07,07,03,27,16.90
2018,07,07,03,28,16.90
2018,07,07,03,29,16.90
2018,07,07,03,30,16.80
2018,07,07,03,31,16.80
2018,07,07,03,32,16.80
2018,07,07,03,33,16.80
2018,07,07,03,34,16.70
2018,07,07,03,35,16.70
2018,07,07,03,36,16.70
2018,07,07,03,37,16.70
2018,07,07,03,38,16.70
2018,07,07,03,39,16.70
2018,07,07,03,40,16.70
2018,07,07,03,41,16.70
2018,07,07,03,42,16.70
2018,07,07,03,43,16.70
2018,07,07,03,44,16.70
2018,07,07,03,45,16.70
2018,07,07,03,46,16.70
2018,07,07,03,47,16.70
2018,07,07,03,48,16.70
2018,07,07,03,49,16.70
2018,07,07,03,50,16.70
2018,07,07,03,51,16.70
2018,07,07,03,52,16.70
2018,07,07,03,53,16.70
2018,07,07,03,54,16.70
2018,07,07,03,55,16.70
2018,07,07,03,56,16.70
2018,07,07,03,57,16.70
2018,07,07,03,58,16.70
2018,07,07,03,59,16.70
2018,07,07,04,00,16.70
2018,07,07,04,01,16.70
2018,07,07,04,02,16.70
2018,07,07,04,03,16.70
2018,07,07,04,04,16.60
2018,07,07,04,05,16.70
2018,07,07,04,06,16.60
2018,07,07,04,07,16.60
2018,07,07,04,08,16.60
2018,07,07,04,09,16.60
2018,07,07,04,10,16.60
2018,07,07,04,11,16.50
2018,07,07,04,12,16.50
2018,07,07,04,13,16.40
2018,07,07,04,14,16.40
2018,07,07,04,15,16.40
2018,07,07,04,16,16.30
2018,07,07,04,17,16.30
2018,07,07,04,18,16.30
2018,07,07,04,19,16.20
2018,07,07,04,20,16.20
2018,07,07,04,21,16.10
2018,07,07,04,22,16.00
2018,07,07,04,23,15.90
2018,07,07,04,24,15.90
2018,07,07,04,25,15.80
2018,07,07,04,26,15.80
2018,07,07,04,27,15.70
2018,07,07,04,28,15.70
2018,07,07,04,29,15.70
2018,07,07,04,30,15.70
2018,07,07,04,31,15.60
2018,07,07,04,32,15.60
2018,07,07,04,33,15.60
2018,07,07,04,34,15.60
2018,07,07,04,35,15.60
2018,07,07,04,36,15.60
2018,07,07,04,37,15.60
2018,07,07,04,38,15.60
2018,07,07,04,39,15.60
2018,07,07,04,40,15.60
2018,07,07,04,41,15.60
2018,07,07,04,42,15.70
2018,07,07,04,43,15.70
2018,07,07,04,44,15.70
2018,07,07,04,45,15.70
2018,07,07,04,46,15.80
2018,07,07,04,47,15.80
2018,07,07,04,48,15.80
2018,07,07,04,49,15.90
2018,07,07,04,50,15.90
2018,07,07,04,51,15.90
2018,07,07,04,52,15.90
2018,07,07,04,53,16.00
2018,07,07,04,54,16.00
2018,07,07,04,55,16.00
2018,07,07,04,56,16.00
2018,07,07,04,57,16.00
2018,07,07,04,58,16.00
2018,07,07,04,59,16.00
2018,07,07,05,00,16.00
2018,07,07,05,01,16.00
2018,07,07,05,02,16.00
2018,07,07,05,03,16.00
2018,07,07,05,04,16.10
2018,07,07,05,05,16.00
2018,07,07,05,06,16.00
2018,07,07,05,07,16.00
2018,07,07,05,08,16.00
2018,07,07,05,09,16.00
2018,07,07,05,10,16.00
2018,07,07,05,11,16.00
2018,07,07,05,12,16.00
2018,07,07,05,13,16.00
2018,07,07,05,14,16.00
2018,07,07,05,15,15.90
2018,07,07,05,16,15.90
2018,07,07,05,17,15.90
2018,07,07,05,18,15.90
2018,07,07,05,19,15.90
2018,07,07,05,20,15.90
2018,07,07,05,21,16.00
2018,07,07,05,22,15.90
2018,07,07,05,23,15.90
2018,07,07,05,24,15.90
2018,07,07,05,25,15.90
2018,07,07,05,26,16.00
2018,07,07,05,27,16.00
2018,07,07,05,28,16.00
2018,07,07,05,29,16.00
2018,07,07,05,30,16.00
2018,07,07,05,31,16.10
2018,07,07,05,32,16.00
2018,07,07,05,33,16.10
2018,07,07,05,34,16.10
2018,07,07,05,35,16.10
2018,07,07,05,36,16.10
2018,07,07,05,37,16.20
2018,07,07,05,38,16.20
2018,07,07,05,39,16.20
2018,07,07,05,40,16.20
2018,07,07,05,41,16.20
2018,07,07,05,42,16.30
2018,07,07,05,43,16.30
2018,07,07,05,44,16.30
2018,07,07,05,45,16.40
2018,07,07,05,46,16.40
2018,07,07,05,47,16.50
2018,07,07,05,48,16.50
2018,07,07,05,49,16.50
2018,07,07,05,50,16.60
2018,07,07,05,51,16.60
2018,07,07,05,52,16.60
2018,07,07,05,53,16.70
2018,07,07,05,54,16.70
2018,07,07,05,55,16.70
2018,07,07,05,56,16.70
2018,07,07,05,57,16.70
2018,07,07,05,58,16.70
2018,07,07,05,59,16.70
2018,07,07,06,00,16.70
2018,07,07,06,01,16.70
2018,07,07,06,02,16.70
2018,07,07,06,03,16.70
2018,07,07,06,04,16.70
2018,07,07,06,05,16.70
2018,07,07,06,06,16.70
2018,07,07,06,07,16.70
2018,07,07,06,08,16.70
2018,07,07,06,09,16.60
2018,07,07,06,10,16.60
2018,07,07,06,11,16.60
2018,07,07,06,12,16.60
2018,07,07,06,13,16.60
2018,07,07,06,14,16.60
2018,07,07,06,15,16.60
2018,07,07,06,16,16.60
2018,07,07,06,17,16.60
2018,07,07,06,18,16.60
2018,07,07,06,19,16.60
2018,07,07,06,20,16.60
2018,07,07,06,21,16.60
2018,07,07,06,22,16.60
2018,07,07,06,23,16.60
2018,07,07,06,24,16.60
2018,07,07,06,25,16.60
2018,07,07,06,26,16.60
2018,07,07,06,27,16.50
2018,07,07,06,28,16.60
2018,07,07,06,29,16.50
2018,07,07,06,30,16.50
2018,07,07,06,31,16.50
2018,07,07,06,32,16.50
2018,07,07,06,33,16.50
2018,07,07,06,34,16.50
2018,07,07,06,35,16.50
2018,07,07,06,36,16.40
2018,07,07,06,37,16.40
2018,07,07,06,38,16.40
2018,07,07,06,39,16.40
2018,07,07,06,40,16.40
2018,07,07,06,41,16.40
2018,07,07,06,42,16.30
2018,07,07,06,43,16.30
2018,07,07,06,44,16.30
2018,07,07,06,45,16.30
2018,07,07,06,46,16.30
2018,07,07,06,47,16.30
2018,07,07,06,48,16.30
2018,07,07,06,49,16.30
2018,07,07,06,50,16.30
2018,07,07,06,51,16.30
2018,07,07,06,52,16.20
2018,07,07,06,53,16.20
2018,07,07,06,54,16.20
2018,07,07,06,55,16.20
2018,07,07,06,56,16.20
2018,07,07,06,57,16.20
2018,07,07,06,58,16.20
2018,07,07,06,59,16.20
2018,07,07,07,00,16.20
2018,07,07,07,01,16.20
2018,07,07,07,02,16.20
2018,07,07,07,03,16.20
2018,07,07,07,04,16.20
2018,07,07,07,05,16.20
2018,07,07,07,06,16.10
2018,07,07,07,07,16.10
2018,07,07,07,08,16.10
2018,07,07,07,09,16.10
2018,07,07,07,10,16.10
2018,07,07,07,11,16.10
2018,07,07,07,12,16.10
2018,07,07,07,13,16.10
2018,07,07,07,14,16.00
2018,07,07,07,15,16.00
2018,07,07,07,16,16.00
2018,07,07,07,17,15.90
2018,07,07,07,18,15.90
2018,07,07,07,19,15.90
2018,07,07,07,20,15.90
2018,07,07,07,21,15.90
2018,07,07,07,22,15.90
2018,07,07,07,23,15.90
2018,07,07,07,24,15.90
2018,07,07,07,25,15.90
2018,07,07,07,26,15.90
2018,07,07,07,27,15.90
2018,07,07,07,28,15.90
2018,07,07,07,29,15.90
2018,07,07,07,30,15.90
2018,07,07,07,31,15.90
2018,07,07,07,32,15.90
2018,07,07,07,33,15.90
2018,07,07,07,34,16.00
2018,07,07,07,35,16.00
2018,07,07,07,36,16.00
2018,07,07,07,37,16.00
2018,07,07,07,38,16.00
2018,07,07,07,39,16.00
2018,07,07,07,40,16.00
2018,07,07,07,41,16.10
2018,07,07,07,42,16.10
2018,07,07,07,43,16.10
2018,07,07,07,44,16.10
2018,07,07,07,45,16.10
2018,07,07,07,46,16.10
2018,07,07,07,47,16.10
2018,07,07,07,48,16.10
2018,07,07,07,49,16.10
2018,07,07,07,50,16.10
2018,07,07,07,51,16.10
2018,07,07,07,52,16.10
2018,07,07,07,53,16.20
2018,07,07,07,54,16.20
2018,07,07,07,55,16.20
2018,07,07,07,56,16.20
2018,07,07,07,57,16.20
2018,07,07,07,58,16.20
2018,07,07,07,59,16.20
2018,07,07,08,00,16.20
2018,07,07,08,01,16.30
2018,07,07,08,02,16.30
2018,07,07,08,03,16.30
2018,07,07,08,04,16.30
2018,07,07,08,05,16.30
2018,07,07,08,06,16.30
2018,07,07,08,07,16.30
2018,07,07,08,08,16.30
2018,07,07,08,09,16.40
2018,07,07,08,10,16.40
2018,07,07,08,11,16.40
2018,07,07,08,12,16.40
2018,07,07,08,13,16.40
2018,07,07,08,14,16.40
2018,07,07,08,15,16.40
2018,07,07,08,16,16.40
2018,07,07,08,17,16.50
2018,07,07,08,18,16.50
2018,07,07,08,19,16.50
2018,07,07,08,20,16.50
2018,07,07,08,21,16.50
2018,07,07,08,22,16.50
2018,07,07,08,23,16.60
2018,07,07,08,24,16.60
2018,07,07,08,25,16.60
2018,07,07,08,26,16.60
2018,07,07,08,27,16.60
2018,07,07,08,28,16.60
2018,07,07,08,29,16.60
2018,07,07,08,30,16.60
2018,07,07,08,31,16.60
2018,07,07,08,32,16.70
2018,07,07,08,33,16.70
2018,07,07,08,34,16.70
2018,07,07,08,35,16.70
2018,07,07,08,36,16.70
2018,07,07,08,37,16.70
2018,07,07,08,38,16.70
2018,07,07,08,39,16.70
2018,07,07,08,40,16.70
2018,07,07,08,41,16.70
2018,07,07,08,42,16.70
2018,07,07,08,43,16.70
2018,07,07,08,44,16.80
2018,07,07,08,45,16.80
2018,07,07,08,46,16.80
2018,07,07,08,47,16.80
2018,07,07,08,48,16.80
2018,07,07,08,49,16.80
2018,07,07,08,50,16.80
2018,07,07,08,51,16.80
2018,07,07,08,52,16.90
2018,07,07,08,53,16.90
2018,07,07,08,54,16.90
2018,07,07,08,55,16.90
2018,07,07,08,56,17.00
2018,07,07,08,57,17.00
2018,07,07,08,58,17.00
2018,07,07,08,59,17.00
2018,07,07,09,00,17.00
2018,07,07,09,01,17.00
2018,07,07,09,02,17.00
2018,07,07,09,03,17.10
2018,07,07,09,04,17.10
2018,07,07,09,05,17.10
2018,07,07,09,06,17.10
2018,07,07,09,07,17.00
2018,07,07,09,08,17.00
2018,07,07,09,09,17.00
2018,07,07,09,10,17.00
2018,07,07,09,11,17.00
2018,07,07,09,12,17.00
2018,07,07,09,13,17.00
2018,07,07,09,14,16.90
2018,07,07,09,15,16.90
2018,07,07,09,16,16.90
2018,07,07,09,17,16.90
2018,07,07,09,18,16.90
2018,07,07,09,19,16.90
2018,07,07,09,20,17.00
2018,07,07,09,21,17.00
2018,07,07,09,22,17.00
2018,07,07,09,23,17.00
2018,07,07,09,24,17.00
2018,07,07,09,25,17.00
2018,07,07,09,26,17.00
2018,07,07,09,27,17.00
2018,07,07,09,28,17.00
2018,07,07,09,29,17.00
2018,07,07,09,30,17.00
2018,07,07,09,31,17.10
2018,07,07,09,32,17.10
2018,07,07,09,33,17.10
2018,07,07,09,34,17.10
2018,07,07,09,35,17.10
2018,07,07,09,36,17.10
2018,07,07,09,37,17.10
2018,07,07,09,38,17.10
2018,07,07,09,39,17.10
2018,07,07,09,40,17.20
2018,07,07,09,41,17.20
2018,07,07,09,42,17.20
2018,07,07,09,43,17.20
2018,07,07,09,44,17.20
2018,07,07,09,45,17.30
2018,07,07,09,46,17.30
2018,07,07,09,47,17.30
2018,07,07,09,48,17.30
2018,07,07,09,49,17.40
2018,07,07,09,50,17.40
2018,07,07,09,51,17.40
2018,07,07,09,52,17.40
2018,07,07,09,53,17.50
2018,07,07,09,54,17.50
2018,07,07,09,55,17.50
2018,07,07,09,56,17.40
2018,07,07,09,57,17.40
2018,07,07,09,58,17.40
2018,07,07,09,59,17.40
2018,07,07,10,00,17.40
2018,07,07,10,01,17.40
2018,07,07,10,02,17.40
2018,07,07,10,03,17.40
2018,07,07,10,04,17.40
2018,07,07,10,05,17.40
2018,07,07,10,06,17.30
2018,07,07,10,07,17.30
2018,07,07,10,08,17.30
2018,07,07,10,09,17.30
2018,07,07,10,10,17.30
2018,07,07,10,11,17.30
2018,07,07,10,12,17.30
2018,07,07,10,13,17.30
2018,07,07,10,14,17.40
2018,07,07,10,15,17.40
2018,07,07,10,16,17.40
2018,07,07,10,17,17.40
2018,07,07,10,18,17.40
2018,07,07,10,19,17.50
2018,07,07,10,20,17.50
2018,07,07,10,21,17.60
2018,07,07,10,22,17.60
2018,07,07,10,23,17.60
2018,07,07,10,24,17.60
2018,07,07,10,25,17.60
2018,07,07,10,26,17.60
2018,07,07,10,27,17.60
2018,07,07,10,28,17.60
2018,07,07,10,29,17.60
2018,07,07,10,30,17.60
2018,07,07,10,31,17.70
2018,07,07,10,32,17.70
2018,07,07,10,33,17.70
2018,07,07,10,34,17.80
2018,07,07,10,35,17.80
2018,07,07,10,36,17.80
2018,07,07,10,37,17.80
2018,07,07,10,38,17.80
2018,07,07,10,39,17.70
2018,07,07,10,40,17.70
2018,07,07,10,41,17.70
2018,07,07,10,42,17.70
2018,07,07,10,43,17.70
2018,07,07,10,44,17.70
2018,07,07,10,45,17.70
2018,07,07,10,46,17.70
2018,07,07,10,47,17.70
2018,07,07,10,48,17.80
2018,07,07,10,49,17.80
2018,07,07,10,50,17.80
2018,07,07,10,51,17.80
2018,07,07,10,52,17.80
2018,07,07,10,53,17.80
2018,07,07,10,54,17.80
2018,07,07,10,55,17.80
2018,07,07,10,56,17.80
2018,07,07,10,57,17.80
2018,07,07,10,58,17.90
2018,07,07,10,59,17.90
2018,07,07,11,00,17.90
2018,07,07,11,01,17.90
2018,07,07,11,02,17.90
2018,07,07,11,03,17.90
2018,07,07,11,04,17.90
2018,07,07,11,05,17.90
2018,07,07,11,06,17.90
2018,07,07,11,07,17.90
2018,07,07,11,08,17.90
2018,07,07,11,09,17.90
2018,07,07,11,10,18.00
2018,07,07,11,11,18.00
2018,07,07,11,12,18.00
2018,07,07,11,13,18.00
2018,07,07,11,14,18.00
2018,07,07,11,15,18.00
2018,07,07,11,16,18.00
2018,07,07,11,17,18.00
2018,07,07,11,18,18.00
2018,07,07,11,19,18.00
2018,07,07,11,20,17.90
2018,07,07,11,21,17.90
2018,07,07,11,22,17.90
2018,07,07,11,23,17.90
2018,07,07,11,24,17.90
2018,07,07,11,25,17.90
2018,07,07,11,26,17.90
2018,07,07,11,27,17.90
2018,07,07,11,28,17.90
2018,07,07,11,29,18.00
2018,07,07,11,30,18.00
2018,07,07,11,31,18.00
2018,07,07,11,32,18.00
2018,07,07,11,33,18.00
2018,07,07,11,34,18.00
2018,07,07,11,35,17.90
2018,07,07,11,36,17.90
2018,07,07,11,37,18.00
2018,07,07,11,38,18.00
2018,07,07,11,39,18.00
2018,07,07,11,40,18.10
2018,07,07,11,41,18.10
2018,07,07,11,42,18.10
2018,07,07,11,43,18.10
2018,07,07,11,44,18.10
2018,07,07,11,45,18.20
2018,07,07,11,46,18.20
2018,07,07,11,47,18.20
2018,07,07,11,48,18.20
2018,07,07,11,49,18.20
2018,07,07,11,50,18.10
2018,07,07,11,51,18.10
2018,07,07,11,52,18.10
2018,07,07,11,53,18.10
2018,07,07,11,54,18.00
2018,07,07,11,55,18.00
2018,07,07,11,56,18.00
2018,07,07,11,57,18.00
2018,07,07,11,58,18.10
2018,07,07,11,59,18.10
2018,07,07,12,00,18.00
2018,07,07,12,01,18.00
2018,07,07,12,02,18.00
2018,07,07,12,03,18.00
2018,07,07,12,04,18.00
2018,07,07,12,05,18.00
2018,07,07,12,06,18.10
2018,07,07,12,07,18.00
2018,07,07,12,08,18.00
2018,07,07,12,09,18.00
2018,07,07,12,10,18.00
2018,07,07,12,11,18.00
2018,07,07,12,12,18.00
2018,07,07,12,13,17.90
2018,07,07,12,14,17.90
2018,07,07,12,15,17.80
2018,07,07,12,16,17.80
2018,07,07,12,17,17.80
2018,07,07,12,18,17.80
2018,07,07,12,19,17.80
2018,07,07,12,20,17.80
2018,07,07,12,21,17.90
2018,07,07,12,22,17.90
2018,07,07,12,23,17.90
2018,07,07,12,24,17.90
2018,07,07,12,25,17.90
2018,07,07,12,26,17.90
2018,07,07,12,27,17.90
2018,07,07,12,28,18.00
2018,07,07,12,29,18.00
2018,07,07,12,30,18.00
2018,07,07,12,31,18.00
2018,07,07,12,32,18.00
2018,07,07,12,33,17.90
2018,07,07,12,34,17.90
2018,07,07,12,35,17.90
2018,07,07,12,36,17.90
2018,07,07,12,37,17.90
2018,07,07,12,38,18.00
2018,07,07,12,39,17.90
2018,07,07,12,40,17.90
2018,07,07,12,41,17.90
2018,07,07,12,42,17.90
2018,07,07,12,43,17.90
2018,07,07,12,44,17.90
2018,07,07,12,45,17.90
2018,07,07,12,46,17.90
2018,07,07,12,47,17.90
2018,07,07,12,48,17.90
2018,07,07,12,49,17.90
2018,07,07,12,50,17.90
2018,07,07,12,51,17.90
2018,07,07,12,52,17.80
2018,07,07,12,53,17.80
2018,07,07,12,54,17.80
2018,07,07,12,55,17.80
2018,07,07,12,56,17.80
2018,07,07,12,57,17.80
2018,07,07,12,58,17.80
2018,07,07,12,59,17.80
2018,07,07,13,00,17.80
2018,07,07,13,01,17.80
2018,07,07,13,02,17.80
2018,07,07,13,03,17.80
2018,07,07,13,04,17.90
2018,07,07,13,05,17.90
2018,07,07,13,06,17.90
2018,07,07,13,07,17.90
2018,07,07,13,08,17.90
2018,07,07,13,09,18.00
2018,07,07,13,10,17.90
2018,07,07,13,11,18.00
2018,07,07,13,12,18.00
2018,07,07,13,13,18.00
2018,07,07,13,14,17.90
2018,07,07,13,15,17.90
2018,07,07,13,16,17.90
2018,07,07,13,17,17.90
2018,07,07,13,18,17.90
2018,07,07,13,19,17.90
2018,07,07,13,20,17.90
2018,07,07,13,21,17.80
2018,07,07,13,22,17.80
2018,07,07,13,23,17.80
2018,07,07,13,24,17.80
2018,07,07,13,25,17.80
2018,07,07,13,26,17.80
2018,07,07,13,27,17.80
2018,07,07,13,28,17.80
2018,07,07,13,29,17.80
2018,07,07,13,30,17.80
2018,07,07,13,31,17.90
2018,07,07,13,32,17.90
2018,07,07,13,33,17.90
2018,07,07,13,34,18.00
2018,07,07,13,35,18.00
2018,07,07,13,36,18.00
2018,07,07,13,37,18.10
2018,07,07,13,38,18.00
2018,07,07,13,39,18.00
2018,07,07,13,40,18.00
2018,07,07,13,41,17.90
2018,07,07,13,42,18.00
2018,07,07,13,43,18.00
2018,07,07,13,44,18.00
2018,07,07,13,45,18.10
2018,07,07,13,46,18.00
2018,07,07,13,47,18.00
2018,07,07,13,48,17.90
2018,07,07,13,49,17.90
2018,07,07,13,50,17.90
2018,07,07,13,51,17.90
2018,07,07,13,52,17.90
2018,07,07,13,53,17.90
2018,07,07,13,54,17.90
2018,07,07,13,55,17.90
2018,07,07,13,56,17.90
2018,07,07,13,57,17.90
2018,07,07,13,58,17.90
2018,07,07,13,59,17.90
2018,07,07,14,00,17.90
2018,07,07,14,01,17.90
2018,07,07,14,02,17.90
2018,07,07,14,03,18.00
2018,07,07,14,04,17.90
2018,07,07,14,05,17.90
2018,07,07,14,06,17.90
2018,07,07,14,07,17.90
2018,07,07,14,08,17.90
2018,07,07,14,09,17.90
2018,07,07,14,10,18.00
2018,07,07,14,11,18.00
2018,07,07,14,12,18.00
2018,07,07,14,13,18.00
2018,07,07,14,14,18.00
2018,07,07,14,15,18.00
2018,07,07,14,16,18.00
2018,07,07,14,17,18.00
2018,07,07,14,18,17.90
2018,07,07,14,19,17.90
2018,07,07,14,20,17.90
2018,07,07,14,21,18.00
2018,07,07,14,22,18.00
2018,07,07,14,23,18.00
2018,07,07,14,24,17.90
2018,07,07,14,25,17.90
2018,07,07,14,26,17.90
2018,07,07,14,27,17.90
2018,07,07,14,28,17.90
2018,07,07,14,29,17.90
2018,07,07,14,30,17.90
2018,07,07,14,31,17.80
2018,07,07,14,32,17.80
2018,07,07,14,33,17.80
2018,07,07,14,34,17.90
2018,07,07,14,35,17.90
2018,07,07,14,36,17.90
2018,07,07,14,37,18.00
2018,07,07,14,38,18.10
2018,07,07,14,39,18.10
2018,07,07,14,40,18.20
2018,07,07,14,41,18.20
2018,07,07,14,42,18.20
2018,07,07,14,43,18.20
2018,07,07,14,44,18.20
2018,07,07,14,45,18.20
2018,07,07,14,46,18.10
2018,07,07,14,47,18.10
2018,07,07,14,48,18.10
2018,07,07,14,49,18.10
2018,07,07,14,50,18.20
2018,07,07,14,51,18.20
2018,07,07,14,52,18.20
2018,07,07,14,53,18.20
2018,07,07,14,54,18.20
2018,07,07,14,55,18.20
2018,07,07,14,56,18.20
2018,07,07,14,57,18.20
2018,07,07,14,58,18.20
2018,07,07,14,59,18.20
2018,07,07,15,00,18.20
2018,07,07,15,01,18.20
2018,07,07,15,02,18.30
2018,07,07,15,03,18.30
2018,07,07,15,04,18.30
2018,07,07,15,05,18.30
2018,07,07,15,06,18.30
2018,07,07,15,07,18.30
2018,07,07,15,08,18.30
2018,07,07,15,09,18.30
2018,07,07,15,10,18.30
2018,07,07,15,11,18.30
2018,07,07,15,12,18.30
2018,07,07,15,13,18.40
2018,07,07,15,14,18.40
2018,07,07,15,15,18.40
2018,07,07,15,16,18.40
2018,07,07,15,17,18.40
2018,07,07,15,18,18.50
2018,07,07,15,19,18.50
2018,07,07,15,20,18.50
2018,07,07,15,21,18.40
2018,07,07,15,22,18.40
2018,07,07,15,23,18.40
2018,07,07,15,24,18.40
2018,07,07,15,25,18.40
2018,07,07,15,26,18.40
2018,07,07,15,27,18.40
2018,07,07,15,28,18.40
2018,07,07,15,29,18.40
2018,07,07,15,30,18.40
2018,07,07,15,31,18.40
2018,07,07,15,32,18.40
2018,07,07,15,33,18.50
2018,07,07,15,34,18.50
2018,07,07,15,35,18.50
2018,07,07,15,36,18.50
2018,07,07,15,37,18.50
2018,07,07,15,38,18.50
2018,07,07,15,39,18.60
2018,07,07,15,40,18.60
2018,07,07,15,41,18.60
2018,07,07,15,42,18.60
2018,07,07,15,43,18.60
2018,07,07,15,44,18.60
2018,07,07,15,45,18.60
2018,07,07,15,46,18.60
2018,07,07,15,47,18.60
2018,07,07,15,48,18.70
2018,07,07,15,49,18.70
2018,07,07,15,50,18.70
2018,07,07,15,51,18.70
2018,07,07,15,52,18.70
2018,07,07,15,53,18.70
2018,07,07,15,54,18.70
2018,07,07,15,55,18.80
2018,07,07,15,56,18.80
2018,07,07,15,57,18.80
2018,07,07,15,58,18.80
2018,07,07,15,59,18.80
2018,07,07,16,00,18.80
2018,07,07,16,01,18.80
2018,07,07,16,02,18.90
2018,07,07,16,03,18.80
2018,07,07,16,04,18.80
2018,07,07,16,05,18.80
2018,07,07,16,06,18.80
2018,07,07,16,07,18.80
2018,07,07,16,08,18.80
2018,07,07,16,09,18.80
2018,07,07,16,10,18.80
2018,07,07,16,11,18.90
2018,07,07,16,12,18.90
2018,07,07,16,13,18.90
2018,07,07,16,14,18.90
2018,07,07,16,15,18.90
2018,07,07,16,16,18.90
2018,07,07,16,17,18.90
2018,07,07,16,18,18.90
2018,07,07,16,19,18.90
2018,07,07,16,20,18.90
2018,07,07,16,21,18.90
2018,07,07,16,22,18.80
2018,07,07,16,23,18.80
2018,07,07,16,24,18.80
2018,07,07,16,25,18.70
2018,07,07,16,26,18.70
2018,07,07,16,27,18.70
2018,07,07,16,28,18.70
2018,07,07,16,29,18.70
2018,07,07,16,30,18.70
2018,07,07,16,31,18.60
2018,07,07,16,32,18.60
2018,07,07,16,33,18.60
2018,07,07,16,34,18.60
2018,07,07,16,35,18.60
2018,07,07,16,36,18.60
2018,07,07,16,37,18.60
2018,07,07,16,38,18.60
2018,07,07,16,39,18.60
2018,07,07,16,40,18.60
2018,07,07,16,41,18.60
2018,07,07,16,42,18.60
2018,07,07,16,43,18.60
2018,07,07,16,44,18.60
2018,07,07,16,45,18.60
2018,07,07,16,46,18.60
2018,07,07,16,47,18.60
2018,07,07,16,48,18.60
2018,07,07,16,49,18.60
2018,07,07,16,50,18.60
2018,07,07,16,51,18.70
2018,07,07,16,52,18.70
2018,07,07,16,53,18.70
2018,07,07,16,54,18.70
2018,07,07,16,55,18.70
2018,07,07,16,56,18.70
2018,07,07,16,57,18.80
2018,07,07,16,58,18.80
2018,07,07,16,59,18.90
2018,07,07,17,00,18.90
2018,07,07,17,01,19.00
2018,07,07,17,02,19.00
2018,07,07,17,03,19.10
2018,07,07,17,04,19.10
2018,07,07,17,05,19.20
2018,07,07,17,06,19.20
2018,07,07,17,07,19.20
2018,07,07,17,08,19.20
2018,07,07,17,09,19.20
2018,07,07,17,10,19.20
2018,07,07,17,11,19.20
2018,07,07,17,12,19.20
2018,07,07,17,13,19.20
2018,07,07,17,14,19.20
2018,07,07,17,15,19.20
2018,07,07,17,16,19.10
2018,07,07,17,17,19.10
2018,07,07,17,18,19.00
2018,07,07,17,19,19.00